Springfield, OH

12:05 PM EST on November 24, 2017 (GMT -0500)
Springfield-Beckley Municipal

Weather History for KSGH - May, 2013

Change the Weather History Date:

Saturday, May 18, 2013

  Actual Average (KFFO) Record (KFFO)
Temperature  
Mean Temperature 67 °F -  
Max Temperature 75 °F 70 °F 84 °F (2004)
Min Temperature 59 °F 49 °F 35 °F (2014)
Cooling Degree Days 2    
Growing Degree Days 17 (Base 50)    
Moisture  
Dew Point 62 °F    
Average Humidity 78    
Maximum Humidity 100    
Minimum Humidity 60    
Precipitation  
Precipitation 0.00 in - - ()
Sea Level Pressure  
Sea Level Pressure 30.05 in    
Wind  
Wind Speed 5 mph (East)    
Max Wind Speed 10 mph    
Max Gust Speed -    
Visibility 6 miles    
Events Rain    
Averages and records for this station are not official NWS values.
T = Trace of Precipitation, MM = Missing Value Source: NWS Daily Summary

Daily Weather History Graph

Daily Weather History Graph

Search for Another Location

Airport or City:

Trip Planner

Search our weather history database for the weather conditions in past years. The results will help you decide how hot, cold, wet, or windy it might be!

Date:

Astronomy

May. 18, 2013 Rise Set
Actual Time 6:17 AM EDT 8:46 PM EDT
Civil Twilight 5:46 AM EDT 9:17 PM EDT
Nautical Twilight 5:08 AM EDT 9:55 PM EDT
Astronomical Twilight 4:26 AM EDT 10:38 PM EDT
Moon 1:49 PM EDT (5/18) 2:08 AM EDT (5/18)
Length of Visible Light 15h 30m
Length of Day
14h 28m
First Quarter, 55% of the Moon is Illuminated
May 18
First Quarter
May 25
Full
May 31
Last Quarter
Jun 8
New
Jun 16
First Quarter

Hourly Weather History & Observations

Time (EDT) Temp. Dew Point Humidity Pressure Visibility Wind Dir Wind Speed Gust Speed Precip Events Conditions
12:56 AM 61.9 °F 61.9 °F 100% 30.08 in 6.0 mi East 4.6 mph - N/A   Overcast
1:56 AM 61.9 °F 61.9 °F 100% 30.07 in 6.0 mi East 3.5 mph - N/A   Mostly Cloudy
2:56 AM 59.9 °F 59.9 °F 100% 30.05 in 4.0 mi East 3.5 mph - N/A   Clear
3:56 AM 59.9 °F - N/A% 30.05 in 4.0 mi NE 5.8 mph - N/A   Haze
4:23 AM 60.8 °F - N/A% 30.08 in 2.5 mi ENE 4.6 mph - N/A   Partly Cloudy
4:56 AM 59.9 °F - N/A% 30.06 in 2.5 mi East 4.6 mph - N/A   Clear
5:34 AM 60.8 °F - N/A% 30.08 in 3.0 mi ENE 4.6 mph - 0.00 in   Clear
5:56 AM 59.9 °F - N/A% 30.07 in 3.0 mi East 4.6 mph - 0.00 in   Partly Cloudy
6:56 AM 59.9 °F - N/A% 30.08 in 3.0 mi East 5.8 mph - 0.00 in   Overcast
7:08 AM 60.8 °F - N/A% 30.09 in 2.5 mi East 5.8 mph - 0.00 in Rain Light Rain
7:56 AM 61.9 °F - N/A% 30.09 in 2.0 mi East 4.6 mph - 0.00 in   Mostly Cloudy
8:33 AM 62.6 °F - N/A% 30.10 in 3.0 mi East 4.6 mph - N/A   Scattered Clouds
8:56 AM 63.0 °F - N/A% 30.10 in 4.0 mi East 5.8 mph - N/A   Haze
9:56 AM 63.9 °F 63.9 °F 100% 30.10 in 5.0 mi ENE 5.8 mph - 0.00 in   Scattered Clouds
10:56 AM 66.9 °F 63.0 °F 87% 30.09 in 5.0 mi NE 5.8 mph - N/A   Partly Cloudy
11:56 AM 70.0 °F 63.0 °F 78% 30.09 in 6.0 mi ENE 6.9 mph - N/A   Haze
12:56 PM 73.9 °F 63.9 °F 71% 30.07 in 6.0 mi East 4.6 mph - N/A   Haze
1:56 PM 73.9 °F 61.0 °F 64% 30.06 in 7.0 mi ESE 10.4 mph - N/A   Mostly Cloudy
2:56 PM 74.8 °F 61.0 °F 62% 30.04 in 8.0 mi East 8.1 mph - N/A   Scattered Clouds
3:56 PM 75.9 °F 61.0 °F 60% 30.02 in 9.0 mi East 8.1 mph - N/A   Partly Cloudy
4:56 PM 75.9 °F 61.9 °F 62% 30.01 in 7.0 mi ENE 10.4 mph - N/A   Mostly Cloudy
5:56 PM 74.8 °F 63.0 °F 66% 30.00 in 7.0 mi NE 9.2 mph - N/A   Partly Cloudy
6:56 PM 75.9 °F 61.9 °F 62% 30.00 in 7.0 mi ENE 10.4 mph - N/A   Partly Cloudy
7:56 PM 72.0 °F 63.0 °F 73% 30.00 in 7.0 mi NE 6.9 mph - N/A   Clear
8:56 PM 70.0 °F 63.0 °F 78% 30.01 in 8.0 mi NE 4.6 mph - N/A   Mostly Cloudy
9:56 PM 68.0 °F 61.9 °F 81% 30.01 in 8.0 mi East 4.6 mph - 0.00 in Rain Light Rain
10:56 PM 68.9 °F 61.9 °F 78% 30.01 in 10.0 mi SSE 9.2 mph - 0.00 in   Clear
11:56 PM 65.8 °F 63.0 °F 90% 30.01 in 9.0 mi SSE 4.6 mph - N/A   Clear